This is the latest recevied weather packets stored in our database for station/object KD9IXX-13. If no packets are shown the sender has not sent any weather packets the latest 10 day(s).
| Time | Temp. | Humidity | Pressure | Rain* | Wind** | Luminosity | Snow |
|---|---|---|---|---|---|---|---|
| 1778045402 | 8.89° C | 62% | 1012.2 hPa | 0 mm | - | 0 W/m² | - |
| 1778045102 | 8.89° C | 62% | 1012.2 hPa | 0 mm | - | 0 W/m² | - |
| 1778044803 | 9.44° C | 64% | 1012.2 hPa | 0 mm | - | 0 W/m² | - |
| 1778044502 | 9.44° C | 64% | 1012 hPa | 0 mm | - | 0 W/m² | - |
| 1778044202 | 9.44° C | 63% | 1011.8 hPa | 0 mm | - | 0 W/m² | - |
| 1778043902 | 8.89° C | 66% | 1011.8 hPa | 0 mm | - | 0 W/m² | - |
| 1778043602 | 8.89° C | 67% | 1011.8 hPa | 0 mm | - | 0 W/m² | - |
| 1778043302 | 9.44° C | 66% | 1011.6 hPa | 0 mm | - | 0 W/m² | - |
| 1778043002 | 9.44° C | 65% | 1011.5 hPa | 0 mm | - | 0 W/m² | - |
| 1778042702 | 9.44° C | 65% | 1011.6 hPa | 0 mm | - | 0 W/m² | - |
| 1778042402 | 9.44° C | 65% | 1011.8 hPa | 0 mm | - | 0 W/m² | - |
| 1778042102 | 9.44° C | 66% | 1011.5 hPa | 0 mm | - | 0 W/m² | - |
| 1778041802 | 9.44° C | 65% | 1012 hPa | 0 mm | - | 0 W/m² | - |
| 1778041502 | 9.44° C | 65% | 1012 hPa | 0 mm | - | 0 W/m² | - |
| 1778041202 | 9.44° C | 64% | 1011.8 hPa | 0 mm | - | 0 W/m² | - |
| 1778040902 | 10° C | 63% | 1011.7 hPa | 0 mm | - | 0 W/m² | - |
| 1778040602 | 10° C | 62% | 1011.9 hPa | 0 mm | - | 0 W/m² | - |
| 1778040302 | 10° C | 63% | 1012.1 hPa | 0 mm | - | 0 W/m² | - |
| 1778040002 | 10° C | 63% | 1012.4 hPa | 0 mm | - | 0 W/m² | - |
| 1778039702 | 10° C | 61% | 1012.2 hPa | 0 mm | - | 0 W/m² | - |
| 1778039402 | 10° C | 62% | 1012.3 hPa | 0 mm | - | 0 W/m² | - |
| 1778039102 | 10° C | 62% | 1012 hPa | 0 mm | - | 0 W/m² | - |
| 1778038802 | 10° C | 62% | 1012.1 hPa | 0 mm | - | 0 W/m² | - |
| 1778038502 | 10° C | 62% | 1011.8 hPa | 0 mm | - | 0 W/m² | - |
| 1778038202 | 10° C | 62% | 1012 hPa | 0 mm | - | 0 W/m² | - |
* Rain latest hour (hover to see other rain measurements)
** Current wind speed in m/s (hover to see current wind gust speed)